Regional Weather Roundup
Issued by NWS

Home | Current Version | Previous Version | Graphics & Text | Print | Product List | Glossary On
Versions: 1 2 3 4 5 6 7 8 9 10 11 12 13 14 15 16 17 18 19 20 21 22 23 24 25 26 27 28 29 30 31 32 33 34 35 36 37 38 39 40 41 42 43 44 45 46 47 48 49 50
927
ASUS43 KFSD 120802
RWRSD

WEATHER ROUNDUP FOR SOUTH DAKOTA
NATIONAL WEATHER SERVICE SIOUX FALLS SD
200 AM CST FRI FEB 12 2016

NOTE: "FAIR" INDICATES FEW OR NO CLOUDS BELOW 12,000 FEET WITH NO
SIGNIFICANT WEATHER AND/OR OBSTRUCTIONS TO VISIBILITY.


SDZ001>005-009-010-012>017-120900-
NORTHWEST AND NORTH CENTRAL SOUTH DAKOTA

CITY           SKY/WX    TMP DP  RH WIND       PRES   REMARKS
BUFFALO          N/A     28  23  81 NW14      30.19S WCI  17
FAITH            N/A     25  20  81 N9        30.27R WCI  15
MOBRIDGE       CLOUDY    21  16  81 N9        30.29R WCI  11
$$

SDZ012>016-024>037-041>051-057-063-072>074-120900-
SOUTHWEST AND SOUTH CENTRAL SOUTH DAKOTA

CITY           SKY/WX    TMP DP  RH WIND       PRES   REMARKS
RAPID CTY ARPT CLOUDY    31  27  85 N3        30.24S
PIERRE         CLOUDY    24  19  81 N15       30.30R WCI  11
CUSTER         CLEAR     32  23  69 W12       30.19F WCI  23
ELLSWORTH AFB  CLOUDY    31  28  91 E1        30.23
PHILIP         CLOUDY    30  25  81 N12       30.27R WCI  20
PINE RIDGE     CLOUDY    33  29  85 NW5       30.25R WCI  29
WINNER         CLOUDY    28  24  85 W5        30.26S WCI  23
$$

SDZ004>011-016>023-039-040-120900-
NORTHEAST SOUTH DAKOTA

CITY           SKY/WX    TMP DP  RH WIND       PRES   REMARKS
ABERDEEN       CLOUDY    14   9  80 NW7       30.33R WCI   4
WATERTOWN      CLOUDY    10   5  80 N12       30.24R WCI  -5
BROOKINGS      FLURRIES  16  12  84 NW8       30.23R WCI   5
SISSETON         N/A     10   6  84 N10       30.30R WCI  -4
$$

SDZ017-020-022-023-036>040-048>070-120900-
SOUTHEAST SOUTH DAKOTA

CITY           SKY/WX    TMP DP  RH WIND       PRES   REMARKS
SIOUX FALLS    CLOUDY    17  14  88 NW7       30.25R WCI   8
HURON          CLOUDY    17  13  84 N13       30.31R WCI   4
CHAMBERLAIN    CLOUDY    26  25  99 N9        30.27F FOG     WCI  16
MITCHELL       CLOUDY    20  16  84 N12       30.31R WCI   8
YANKTON        CLOUDY    18  14  86 NW7       30.28R WCI   8
$$

ABBREVIATIONS USED IN REMARKS
   TC - TEMPERATURE IN CELSIUS
  WCI - WIND CHILL INDEX
   HX - HEAT INDEX
  VSB - VISIBILITY





USA.gov is the U.S. government's official web portal to all federal, state and local government web resources and services.